Miscellaneous Local Product
Issued by NWS Hastings, NE

Home | Current Version | Previous Version | Text Only | Print | Product List | Glossary Off
Versions: 1 2 3 4 5 6 7 8 9 10 11 12 13 14 15 16 17 18 19 20 21 22 23 24 25 26 27 28 29 30 31 32 33 34 35 36 37 38 39 40 41 42 43 44 45 46 47 48 49 50

000
AXUS43 KGID 250902
MISGRI

GID CWA HOURLY WEATHER ROUNDUP
NATIONAL WEATHER SERVICE HASTINGS NE
300 AM CST SUN JAN 25 2015

NOTE: "FAIR" INDICATES FEW OR NO CLOUDS BELOW 12,000 FEET WITH NO
SIGNIFICANT WEATHER AND/OR OBSTRUCTIONS TO VISIBILITY.

...SOUTH CENTRAL NEBRASKA...

CITY           SKY/WX    TMP DP  RH WIND       PRES   REMARKS
GRAND ISLAND   CLOUDY    40  34  79 NW30G41   29.82R WCI  28
HASTINGS       CLOUDY    42  33  70 NW30G43   29.82R
KEARNEY        CLOUDY    43  30  61 N24G39    29.84R
ORD            LGT RAIN  38  34  85 NW28G38   29.83R WCI  26
YORK           CLOUDY    39  34  81 NW25G32   29.76R WCI  28
AURORA         CLOUDY    40  33  75 NW28G38   29.80R WCI  29
LEXINGTON      MOCLDY    41  30  63 NW22G33   29.91R
HOLDREGE       CLOUDY    43  29  58 NW23G33   29.86R
HEBRON         CLOUDY    44  33  65 NW22G31   29.77R

...NEBRASKA PANHANDLE...

CITY           SKY/WX    TMP DP  RH WIND       PRES   REMARKS
CHADRON        CLEAR     35  26  69 W21       30.05R WCI  24
ALLIANCE       CLEAR     33  25  72 W18       30.03R WCI  22
SCOTTSBLUFF    PTCLDY    37  27  67 W18       30.09R WCI  27
SIDNEY         PTCLDY    35  25  66 NW14      30.09R WCI  26

...WESTERN AND NORTH CENTRAL NEBRASKA...

CITY           SKY/WX    TMP DP  RH WIND       PRES   REMARKS
VALENTINE      CLEAR     37  30  75 NW24G35   29.93R WCI  26
AINSWORTH      CLOUDY    38  29  70 NW31G45   29.90R WCI  26
ONEILL         DRIZZLE   36  35  96 N20       29.83R WCI  25
BROKEN BOW     PTCLDY    41  29  62 NW32G45   29.86R
IMPERIAL       CLEAR     39  25  57 NW23G33   30.00S WCI  28
NORTH PLATTE   CLEAR     34  28  79 NW10      29.95R WCI  26
MCCOOK         CLEAR     40  28  62 NW23G31   29.96R WCI  30

...EASTERN NEBRASKA...

CITY           SKY/WX    TMP DP  RH WIND       PRES   REMARKS
NORFOLK        LGT SNOW  34  31  88 NW24G38   29.76R FOG     WCI  21
SO SIOUX CITY  LGT SNOW  34  32  92 NW18      29.72R FOG     WCI  23
TEKAMAH        LGT RAIN  37  34  89 N23G37    29.69R WCI  26
COLUMBUS       MOCLDY    36  28  75 N23G37    29.77R WCI  24
ALBION         LGT RAIN  36  32  87 NW18G25   29.80R WCI  25
OMAHA EPPLEY   LGT RAIN  40  37  89 NW18      29.64R WCI  31
OFFUTT AFB     LGT RAIN  41  36  81 NW24G37   29.63R
MILLARD        LGT RAIN  42  36  81 NW18G32   29.65R
LINCOLN        CLOUDY    41  33  73 NW30G38   29.71R
NEBRASKA CITY  CLOUDY    42  34  72 NW15      29.65R
BEATRICE       CLOUDY    42  37  81 NW30G37   29.72R
FALLS CITY     CLOUDY    44  39  82 NW15      29.65R

...NORTHERN KANSAS...

CITY           SKY/WX    TMP DP  RH WIND       PRES   REMARKS
GOODLAND       PTCLDY    38  26  62 NW25G33   30.04S WCI  27
HILL CITY      CLEAR     41  28  60 NW15      29.95R
NORTON         SUNNY     37  27  65 W17G24    29.93R WCI  28
PHILLIPSBURG   MOCLDY    46  32  57 W18G25    29.90R
SMITH CENTER   CLEAR     45  28  53 NW25G37   29.86R
BELOIT         CLOUDY    48  32  53 NW21G26   29.82R
HAYS           CLEAR     45  27  49 NW22G28   29.93R
RUSSELL        CLEAR     45  32  60 NW30G38   29.88R
CONCORDIA      CLOUDY    46  35  65 NW29G48   29.79R
SALINA         PTCLDY    47  33  58 NW25      29.81R
TOPEKA         MOCLDY    46  37  71 W7        29.69F



USA.gov is the U.S. government's official web portal to all federal, state and local government web resources and services.